Ignacio, CO

4:37 PM MST on February 24, 2017 (GMT -0700)
Durango-La Plata County

Weather History for KDRO - May, 2013

Change the Weather History Date:

Friday, May 17, 2013

  Actual Average Record
Temperature  
Mean Temperature 56 °F 53 °F  
Max Temperature 77 °F 71 °F 82 °F (1970)
Min Temperature 34 °F 36 °F 24 °F (1983)
Degree Days  
Heating Degree Days 9 12  
Month to date heating degree days 229 239  
Since 1 July heating degree days 6969 6875  
Cooling Degree Days 0 0  
Month to date cooling degree days 0 0  
Year to date cooling degree days 0 0  
Growing Degree Days 6 (Base 50)    
Moisture  
Dew Point 18 °F    
Average Humidity 30    
Maximum Humidity 52    
Minimum Humidity 7    
Precipitation  
Precipitation 0.00 in 0.02 in 0.40 in (1975)
Month to date precipitation 0.47 0.58  
Year to date precipitation 3.75 5.21  
Sea Level Pressure  
Sea Level Pressure 29.86 in    
Wind  
Wind Speed 7 mph (West)    
Max Wind Speed 25 mph    
Max Gust Speed 33 mph    
Visibility 10 miles    
Events      
T = Trace of Precipitation, MM = Missing Value Source: NWS Daily Summary

Daily Weather History Graph

Daily Weather History Graph

Search for Another Location

Airport or City:

Trip Planner

Search our weather history database for the weather conditions in past years. The results will help you decide how hot, cold, wet, or windy it might be!

Date:

Astronomy

May. 17, 2013 Rise Set
Actual Time 6:00 AM MDT 8:14 PM MDT
Civil Twilight 5:31 AM MDT 8:43 PM MDT
Nautical Twilight 4:55 AM MDT 9:19 PM MDT
Astronomical Twilight 4:16 AM MDT 9:59 PM MDT
Moon 12:32 PM MDT (5/17) 1:12 AM MDT (5/17)
Length of Visible Light 15h 12m
Length of Day
14h 13m
Waxing Crescent, 46% of the Moon is Illuminated
May 17
Waxing Crescent
May 17
First Quarter
May 24
Full
May 31
Last Quarter
Jun 8
New

Hourly Weather History & Observations

Time (MDT) Temp. Windchill Dew Point Humidity Pressure Visibility Wind Dir Wind Speed Gust Speed Precip Events Conditions
12:53 AM 48.0 °F - 25.0 °F 41% 29.83 in 10.0 mi North 4.6 mph - N/A   Clear
1:53 AM 45.0 °F 42.6 °F 24.1 °F 44% 29.84 in 10.0 mi NNE 4.6 mph - N/A   Clear
2:53 AM 43.0 °F - 23.0 °F 45% 29.85 in 10.0 mi Calm Calm - N/A   Clear
3:53 AM 39.0 °F - 21.9 °F 50% 29.89 in 10.0 mi Calm Calm - N/A   Clear
4:53 AM 35.1 °F 31.0 °F 19.9 °F 54% 29.91 in 10.0 mi NNE 4.6 mph - N/A   Clear
6:53 AM 39.9 °F - 23.0 °F 51% 29.95 in 10.0 mi Calm Calm - N/A   Clear
7:53 AM 48.0 °F - 23.0 °F 37% 29.94 in 10.0 mi Calm Calm - N/A   Clear
8:53 AM 57.0 °F - 27.0 °F 32% 29.91 in 10.0 mi ENE 4.6 mph - N/A   Clear
9:53 AM 64.0 °F - 23.0 °F 21% 29.91 in 10.0 mi ENE 4.6 mph - N/A   Clear
10:53 AM 66.0 °F - 23.0 °F 20% 29.89 in 10.0 mi Variable 5.8 mph - N/A   Clear
11:53 AM 69.1 °F - 23.0 °F 18% 29.89 in 10.0 mi NNE 4.6 mph - N/A   Clear
1:53 PM 75.0 °F - 12.9 °F 9% 29.85 in 10.0 mi SSW 13.8 mph 26.5 mph N/A   Clear
2:53 PM 73.9 °F - 9.0 °F 8% 29.85 in 10.0 mi SSW 9.2 mph 27.6 mph N/A   Clear
3:53 PM 77.0 °F - 12.0 °F 8% 29.84 in 10.0 mi SW 16.1 mph 24.2 mph N/A   Clear
4:53 PM 75.9 °F - 10.9 °F 8% 29.83 in 10.0 mi SW 11.5 mph 20.7 mph N/A   Clear
5:53 PM 75.0 °F - 9.0 °F 8% 29.81 in 10.0 mi WSW 12.7 mph - N/A   Clear
6:53 PM 71.1 °F - 8.1 °F 9% 29.82 in 10.0 mi WSW 15.0 mph 18.4 mph N/A   Clear
7:53 PM 66.9 °F - 10.9 °F 11% 29.82 in 10.0 mi WSW 6.9 mph - N/A   Clear
8:53 PM 64.0 °F - 16.0 °F 16% 29.80 in 10.0 mi West 15.0 mph - N/A   Clear
9:53 PM 62.1 °F - 19.0 °F 19% 29.82 in 10.0 mi West 11.5 mph - N/A   Clear
10:53 PM 57.9 °F - 19.9 °F 23% 29.83 in 10.0 mi West 4.6 mph - N/A   Clear
11:53 PM 53.1 °F - 19.0 °F 26% 29.84 in 10.0 mi Calm Calm - N/A   Clear